AirNav   Air Wisconsin pilot careers
 
 1233 users online  

3M8 North Pickens Airport
Reform, Alabama, USA

GOING TO REFORM?


FAA INFORMATION EFFECTIVE 19 JULY 2018

Location

FAA Identifier: 3M8
Lat/Long: 33-23-12.3100N / 088-00-23.6850W
33-23.205167N / 088-00.394750W
33.3867528 / -88.0065792
(estimated)
Elevation: 236.8 ft. / 72 m (estimated)
Variation: 01W (2000)
From city: 1 mile N of REFORM, AL
Time zone: UTC -5 (UTC -6 during Standard Time)
Zip code: 35481

Airport Operations

Airport use: Open to the public
Activation date: 07/1970
Control tower: no
ARTCC: MEMPHIS CENTER
FSS: ANNISTON FLIGHT SERVICE STATION
NOTAMs facility: ANB (NOTAM-D service available)
Attendance: UNATNDD
Wind indicator: lighted
Segmented circle: no
Lights: ACTVT MIRL RY 01/19, REIL RY 01/19 AND TRCV RY 19 - CTAF.
Beacon: white-green (lighted land airport)
Operates sunset to sunrise.

Airport Communications

CTAF: 122.9
COLUMBUS APPROACH: 135.6
COLUMBUS DEPARTURE: 135.6
  • APCH/DEP SVC PRVDD BY MEMPHIS ARTCC ON FREQS 127.1/269.4 (COLUMBUS RCAG) WHEN COLUMBUS APCH CTL CLSD.

Nearby radio navigation aids

VOR radial/distance  VOR name  Freq  Var
LDKr285/24.8CRIMSON VORTAC117.8003E
IGBr099/26.1BIGBEE VORTAC116.2004E
CBMr125/26.5CALEDONIA VORTAC115.2000E
OKWr283/39.0BROOKWOOD VORTAC111.0000E

Airport Services

Fuel available: 100LL
100LL SELF-SERVE 24/7
Parking: tiedowns
Airframe service: NONE
Powerplant service: NONE
Bottled oxygen: NONE
Bulk oxygen: NONE

Runway Information

Runway 1/19

Dimensions: 5144 x 80 ft. / 1568 x 24 m
Surface: asphalt, in fair condition
Runway edge lights: medium intensity
RUNWAY 1  RUNWAY 19
Latitude: 33-22.783833N33-23.626500N
Longitude: 088-00.452333W088-00.337167W
Elevation: 230.4 ft.236.8 ft.
Gradient: 0.1% UP0.1% DOWN
Traffic pattern: rightleft
Runway heading: 008 magnetic, 007 true188 magnetic, 187 true
Displaced threshold: 138 ft.
5006 FT AVBL FOR NIGHT OPNS.
no
Markings: nonprecision, in good conditionnonprecision, in good condition
Visual slope indicator: tri-color VASI on left (6.00 degrees glide path)tri-color VASI on left (5.00 degrees glide path)
OUT OF SERVICE
Runway end identifier lights: yesyes
Touchdown point: yes, no lightsyes, no lights
Obstructions: 91 ft. trees, 1685 ft. from runway, 43 ft. left of centerline, 16:1 slope to clear74 ft. tree, 781 ft. from runway, 308 ft. right of centerline, 7:1 slope to clear

Airport Ownership and Management from official FAA records

Ownership: Publicly-owned
Owner: PICKENS CO CMSN
20 PHOENIX AVE
CARROLLTON, AL 35447
Phone 205-367-2020
Manager: WILLIAM H. LANG
P.O.BOX 460
CARROLLTON, AL 35447
Phone (205) 367-8821
MANAGER CELL: 205-463-6351

Airport Operational Statistics

Aircraft based on the field: 11
Single engine airplanes: 9
Jet airplanes: 2
    
Aircraft operations: avg 66/week *
74% transient general aviation
26% local general aviation
* for 12-month period ending 18 October 2016

Instrument Procedures

NOTE: All procedures below are presented as PDF files. If you need a reader for these files, you should download the free Adobe Reader.

NOT FOR NAVIGATION. Please procure official charts for flight.
FAA instrument procedures published for use from 19 July 2018 at 0901Z to 16 August 2018 at 0900Z.

 
IAPs - Instrument Approach Procedures
RNAV (GPS) RWY 01   download (178KB)
RNAV (GPS) RWY 19   download (214KB)
NOTE: Special Take-Off Minimums/Departure Procedures apply   download (189KB)

Other nearby airports with instrument procedures:

KUBS - Columbus-Lowndes County Airport (19 nm W)
KAIV - George Downer Airport (19 nm SW)
M95 - Richard Arthur Field Airport (22 nm NE)
KTCL - Tuscaloosa Regional Airport (22 nm SE)
KCBM - Columbus Air Force Base (27 nm NW)
 
Loc | Ops | Rwys | IFR | FBO | Links
Com | Nav | Svcs | Stats | Notes


 
Area around 3M8 (North Pickens Airport)
 
Road maps at: MapQuest Bing Google
 
Aerial photo
WARNING: Photo may not be current or correct
Aerial photo of 3M8 (North Pickens Airport)
Do you have a better or more recent aerial photo of North Pickens Airport that you would like to share? If so, please send us your photo.

 
Sectional chart

 
Airport distance calculator
Flying to North Pickens Airport? Find the distance to fly.

From to 3M8

Sunrise and sunset
Times for 14-Aug-2018
 Local
(UTC-5)
 Zulu
(UTC)
Morning civil twilight05:4810:48
Sunrise06:1511:15
Sunset19:3900:39
Evening civil twilight20:0501:05

Current date and time
Zulu (UTC)  14-Aug-2018 23:15:06
Local (UTC-5)  14-Aug-2018 18:15:06
 
METAR
KTCL 
22nm SE 
142253Z 25004KT 10SM CLR 33/22 A2998 RMK AO2 SLP151 T03280217
KCBM 
27nm NW 
142256Z AUTO 26005KT 10SM FEW060 32/23 A2999 RMK AO2 SLP156 T03160234 $
KGTR 
28nm W 
142256Z 27004KT 10SM FEW055 32/23 A3000 RMK AO2 SLP159 T03170233 PNO $
KM40 
38nm NW 
142255Z AUTO 24009KT 6SM -DZ BKN060 OVC080 33/27 A3001 RMK AO2
KSTF 
42nm W 
142255Z AUTO 00000KT 10SM CLR 30/22 A3002 RMK AO2
TAF
KTCL 
22nm SE 
141722Z 1418/1518 30005KT P6SM FEW050 FM150100 00000KT P6SM SKC
KCBM 
27nm NW 
142215Z 1422/1523 VRB06KT 9999 VCSH FEW070 SCT180 QNH2994INS BECMG 1423/1424 VRB06KT 9999 NSW FEW070 SCT180 QNH2995INS BECMG 1511/1512 18006KT 9999 FEW160 SCT200 QNH2996INS TX33/1521Z TN20/1512Z
NOTAMs
Click for the latest NOTAMs
NOTAMs are issued by the DoD/FAA and will open in a separate window not controlled by AirNav.

 

 
 

FBO, Fuel Providers, and Aircraft Ground Support

  
 Business Name 
 
 Contact 
 
 Services / Description 
 
Fuel Prices
 
Comments
  
Peco 205-399-0357
no information available

If you are affiliated with Peco and would like to show here your services, contact info, web link, logo, and more, click here
100LL
SS $4.50 
 Updated 02-Sep-2015
 
   write
SS=Self service
Update Fuel Prices
 

Would you like to see your business listed on this page?

 If your business provides an interesting product or service to pilots, flight crews, aircraft, or users of the North Pickens Airport, you should consider listing it here.  To start the listing process, click on the button below
 
Add a business
 

Other Pages about North Pickens Airport

Update a link
 
Copyright © AirNav, LLC. All rights reserved. Privacy Policy  Contact